This demonstration page uses our WeatherBlox Daily Observations layout. Learn more.

Left ArrowRight Arrow

Hourly Observations for November 11, 2018

Temp ( °F °C ) Dew Point ( °F °C ) Humidity (%) Winds ( mph kmh ) Pressure ( in mb ) Visibility ( mi km ) Precip ( " mm )
12:53 am 00:53 Clear 41 5 32 0 70 70 SE 8 13 29.98 1015 10 16 0.00 0.00
1:53 am 01:53 Clear 40 4.4 32 0 73 73 SE 9 15 29.97 1015 10 16 0.00 0.00
2:53 am 02:53 Clear 39 3.9 32 0 76 76 SE 8 13 29.96 1015 10 16 0.00 0.00
3:53 am 03:53 Clear 39 3.9 32 0 76 76 SE 8 13 29.95 1014 10 16 0.00 0.00
4:53 am 04:53 Clear 38 3.3 32 0 79 79 SE 7 11 29.95 1014 10 16 0.00 0.00
5:53 am 05:53 Clear 37 2.8 32 0 82 82 SE 3 6 29.96 1015 10 16 0.00 0.00
6:53 am 06:53 Clear 36 2.2 32 0 86 86 ESE 3 6 29.97 1015 10 16 0.00 0.00
7:53 am 07:53 Sunny 36 2.2 32 0 86 86 NNE 3 6 29.99 1016 10 16 0.00 0.00
8:53 am 08:53 Sunny 42 5.6 35 1.7 76 76 ESE 5 7 30.00 1016 10 16 0.00 0.00
9:53 am 09:53 Sunny 49 9.4 37 2.8 64 64 E 5 7 29.99 1016 10 16 0.00 0.00
10:53 am 10:53 Sunny 55 12.8 40 4.4 57 57 E 5 7 29.97 1015 10 16 0.00 0.00
11:53 am 11:53 Sunny 62 16.7 42 5.6 48 48 SSE 5 7 29.93 1014 10 16 0.00 0.00
12:53 pm 12:53 Sunny 66 18.9 44 6.7 45 45 SSE 7 11 29.89 1012 10 16 0.00 0.00
1:53 pm 13:53 Sunny 69 20.6 44 6.7 41 41 S 6 9 29.85 1011 10 16 0.00 0.00
2:53 pm 14:53 Sunny 71 21.7 44 6.7 38 38 SSE 9 15 29.82 1010 10 16 0.00 0.00
3:53 pm 15:53 Sunny 73 22.8 43 6.1 34 34 SE 8 13 29.81 1009 10 16 0.00 0.00
4:53 pm 16:53 Sunny 71 21.7 44 6.7 38 38 SSE 10 17 29.81 1010 10 16 0.00 0.00
5:53 pm 17:53 Sunny 64 17.8 44 6.7 48 48 SE 8 13 29.83 1010 10 16 0.00 0.00
6:53 pm 18:53 Clear 61 16.1 46 7.8 58 58 SE 12 19 29.84 1010 10 16 0.00 0.00
7:53 pm 19:53 Clear 59 15 47 8.3 64 64 SE 12 19 29.83 1010 10 16 0.00 0.00
8:53 pm 20:53 Mostly Cloudy with Light Rain 58 14.4 47 8.3 67 67 SE 13 20 29.82 1010 10 16 0.00 0.03
9:53 pm 21:53 Mostly Cloudy with Light Rain 53 11.7 47 8.3 80 80 NE 17 28 29.86 1011 10 16 0.01 0.25
10:53 pm 22:53 Partly Cloudy 51 10.6 47 8.3 86 86 NE 10 17 29.88 1012 10 16 0.04 1.02
11:18 pm 23:18 Mostly Clear 49 9.4 45 7.2 86 86 N 18 30 30.00 1016 10 16 0.00 0.00
11:53 pm 23:53 Clear 46 7.8 40 4.4 79 79 NNE 21 33 29.94 1014 10 16 0.00 0.00

Powered by AerisWeather